Home   Weather   Berkeley   Past weeks

Flag for USA Past Weather in Berkeley, California, USA — Yesterday and Last 2 Weeks

Now
77 °F

Passing clouds.


Feels Like: 79 °F
Forecast: 57 / 77 °F
Wind: 9 mph from Northwest

Location: Metro Oakland International Airport

Current Time: Jul 22, 2017 at 2:04:54 pm

Latest Report: Jul 22, 2017 at 12:53 pm


Visibility: 10 mi

Pressure: 29.91 "Hg

Humidity: 50%

Dew Point: 57 °F

Location of BerkeleyLocation

Past Weather in Berkeley — Graph

°F

Berkeley Temperature Yesterday

Maximum temperature yesterday: 73 °F (at 2:53 pm)
Minimum temperature yesterday: 57 °F (at 1:53 am)
Average temperature yesterday: 64 °F

High & Low Weather Summary for the Past Weeks

 TemperatureHumidityPressure
High84 °F (Jul 15, 2:53 pm)93% (Jul 13, 2:53 am)30.08 "Hg (Jul 13, 2:53 am)
Low55 °F (Jul 11, 4:53 am)36% (Jul 16, 3:53 pm)29.83 "Hg (Jul 16, 6:53 pm)
Average65 °F72%29.96 "Hg
* Reported Jul 7 12:53 pm — Jul 22 12:53 pm, Berkeley. Weather by CustomWeather, © 2017

Note: Actual official high and low records may vary slightly from our data, if they occured in-between our weather recording intervals... More about our weather records

Advertising

Berkeley Weather History for the Previous 24 Hours

Scroll right to see more
 ConditionsComfort  
Time TempWeatherWind HumidityBarometerVisibility
12:53 pm
Sat, Jul 22
77 °FPassing clouds.9 mph50%29.91 "Hg10 mi
11:53 am72 °FPassing clouds.7 mph59%29.92 "Hg10 mi
10:53 am69 °FPassing clouds.8 mph68%29.93 "Hg10 mi
9:53 am68 °FPassing clouds.5 mph70%29.94 "Hg10 mi
8:53 am66 °FPassing clouds.3 mph73%29.95 "Hg10 mi
7:53 am64 °FPassing clouds.No wind78%29.94 "Hg10 mi
6:53 am58 °FPassing clouds.No wind84%29.93 "Hg9 mi
5:53 am57 °FPassing clouds.3 mph90%29.92 "Hg10 mi
4:53 am57 °FPassing clouds.No wind87%29.92 "Hg10 mi
3:53 am58 °FPassing clouds.3 mph87%29.92 "Hg10 mi
2:53 am57 °FPassing clouds.5 mph90%29.93 "Hg10 mi
1:53 am60 °FPassing clouds.3 mph80%29.94 "Hg10 mi
12:53 am61 °FPassing clouds.6 mph81%29.95 "Hg10 mi
11:53 pm
Fri, Jul 21
61 °FPassing clouds.7 mph81%29.96 "Hg10 mi
10:53 pm59 °FPassing clouds.3 mph84%29.96 "Hg10 mi
10:19 pm61 °FPassing clouds.No wind81%29.97 "Hg10 mi
8:53 pm62 °FPassing clouds.16 mph78%29.96 "Hg10 mi
7:53 pm63 °FPassing clouds.15 mph73%29.96 "Hg10 mi
6:53 pm66 °FPassing clouds.14 mph68%29.96 "Hg10 mi
5:53 pm68 °FSunny.15 mph63%29.95 "Hg10 mi
4:53 pm70 °FSunny.14 mph59%29.96 "Hg10 mi
3:53 pm72 °FSunny.14 mph53%29.97 "Hg10 mi
2:53 pm73 °FSunny.12 mph50%29.98 "Hg10 mi
Weather by CustomWeather, © 2017

See weather overviewHow to use our weather pages